[[{"header":{"parameterUnit":"m.s-1","parameterCategory":1,"la1":30.2992,"la2":30.254,"lo1":-89.0895,"lo2":-89.0443,"dy":0.0025,"dx":0.0025,"nx":19,"ny":19,"refTime":"2026-04-20T09:00:00:Z","depth":0,"parameterNumber":2,"parameterNumberName":"U-component_of_WINDS"},"data":[0,0,0,-3.0321,-3.0325,-3.0516,-3.0517,-3.079,-3.0793,0,0,0,0,0,0,0,0,0,0,0,-3.0281,-3.0284,-3.032,-3.0326,-3.0516,-3.0517,-3.0789,-3.0793,0,0,0,0,0,0,0,0,0,0,0,-3.028,-3.0283,-3.0286,-3.0326,-3.0516,-3.0517,-3.0789,-3.0634,0,0,0,0,0,0,0,0,0,0,-3.0444,-3.0425,-3.0282,-3.0286,-3.0328,-3.0516,-3.0517,-3.0627,-3.0644,-3.0716,0,-3.0783,0,-3.0793,-3.0813,-3.0814,0,0,0,-3.0313,-3.041,-3.0446,-3.0287,-3.0329,-3.0516,-3.0427,-3.0636,-3.0656,-3.0739,-3.0787,-3.0796,-3.0797,-3.0815,-3.0816,-3.1271,-3.1274,0,0,-3.0302,-3.0325,-3.0432,-3.046,-3.0432,-3.0421,-3.0433,-3.0648,-3.0702,-3.0788,-3.0802,-3.0802,-3.0817,-3.0819,-3.1268,-3.1272,0,0,0,-3.0281,-3.0319,-3.0348,-3.0449,-3.0481,-3.0426,-3.044,-3.0692,-3.07,-3.0805,-3.0805,-3.0818,-3.0822,-3.1265,-3.127,-3.1429,0,0,0,-3.0274,-3.0306,-3.0344,-3.036,-3.0478,-3.0589,-3.0481,-3.0685,-3.0708,-3.0803,-3.0818,-3.0825,-3.1262,-3.1268,-3.1418,-3.1502,0,0,0,-3.0263,-3.0304,-3.0338,-3.0361,-3.0444,-3.0585,-3.0605,-3.0689,-3.0709,-3.0814,-3.0826,-3.126,-3.1267,-3.1409,-3.1486,-3.1632,0,0,0,-3.0258,-3.0475,-3.034,-3.0582,-3.0442,-3.0681,-3.0603,-3.0779,-3.0888,-3.082,-3.1263,-3.1269,-3.1406,-3.1476,-3.1622,-3.1762,-3.1821,0,0,-3.0545,-3.0511,-3.0651,-3.0536,-3.0805,-3.065,-3.0942,-3.102,-3.1008,-3.1184,-3.1195,-3.1422,-3.1485,-3.163,-3.2137,-3.2184,0,0,0,-3.075,-3.0852,-3.0918,-3.1023,-3.1086,-3.1149,-3.1178,-3.1207,-3.1355,-3.1103,-3.151,-3.1547,-3.1631,-3.1698,-3.1738,-3.181,-3.1299,-3.1299,-3.1298,-3.1192,-3.1165,-3.1397,-3.1394,-3.1496,-3.1524,-3.1605,-3.1648,-3.159,-3.1687,-3.1742,-3.2052,-3.2131,-3.2161,-3.2236,-3.1809,-3.1809,-3.181,-3.181,-3.1614,-3.1756,-3.1673,-3.1869,-3.1839,-3.2003,-3.2038,-3.1992,-3.2141,-3.2009,-3.2082,-3.1944,-3.2213,-3.2278,-3.1822,-3.182,-3.1818,-3.1817,-3.1816,-3.1905,-3.1969,-3.1998,-3.2147,-3.2264,-3.2251,-3.2399,-3.2365,-3.2334,-3.2406,-3.2461,-3.2459,-3.2456,-3.2433,-3.2434,-3.2436,-3.2436,-3.2437,-3.2438,-3.2197,-3.2226,-3.2355,-3.244,-3.2503,-3.2581,-3.261,-3.2672,-3.2731,-3.2695,-3.2695,-3.2631,-3.2242,-3.2149,-3.2455,-3.2452,-3.245,-3.2448,-3.2447,-3.2644,-3.2537,-3.2737,-3.28,-3.2898,-3.3018,-3.2971,-3.3099,-3.3143,-3.3218,-3.3136,-3.2853,-3.2816,-3.2784,-3.2707,-3.3139,-3.3139,-3.3139,-3.3139,-3.2894,-3.287,-3.3067,-3.3171,-3.3268,-3.3245,-3.3473,-3.3497,-3.3506,-3.3532,-3.3463,-3.3355,-3.3324,-3.3306,-3.3262,-3.319,-3.3735,-3.3736,-3.3736,-3.3169,-3.3153,-3.3355,-3.336,-3.3434,-3.3498,-3.3712,-3.3835,-3.3821,-3.376,-3.3553,-3.3528,-3.3354,-3.3297,-3.3238,-3.3171,-3.3037,0,0]},{"header":{"parameterUnit":"m.s-1","parameterCategory":1,"la1":30.2992,"la2":30.254,"lo1":-89.0895,"lo2":-89.0443,"dy":0.0025,"dx":0.0025,"nx":19,"ny":19,"refTime":"2026-04-20T09:00:00:Z","depth":0,"parameterNumber":3,"parameterNumberName":"V-component_of_WINDS"},"data":[0,0,0,-4.8507,-4.851,-4.8659,-4.8659,-4.8856,-4.8858,0,0,0,0,0,0,0,0,0,0,0,-4.8471,-4.8473,-4.8507,-4.8511,-4.8659,-4.8659,-4.8856,-4.8858,0,0,0,0,0,0,0,0,0,0,0,-4.847,-4.8472,-4.8475,-4.8511,-4.8659,-4.866,-4.8855,-4.874,0,0,0,0,0,0,0,0,0,0,-4.8594,-4.857,-4.8472,-4.8475,-4.8512,-4.8659,-4.866,-4.8734,-4.8747,-4.8793,0,-4.884,0,-4.8852,-4.8872,-4.8873,0,0,0,-4.8504,-4.856,-4.8593,-4.8475,-4.8514,-4.8659,-4.859,-4.8741,-4.8756,-4.881,-4.8842,-4.8849,-4.8856,-4.8873,-4.8874,-4.917,-4.9171,0,0,-4.8496,-4.8502,-4.8583,-4.8603,-4.8584,-4.8585,-4.8595,-4.875,-4.8784,-4.8843,-4.8854,-4.8859,-4.8875,-4.8876,-4.9168,-4.917,0,0,0,-4.8477,-4.8496,-4.8525,-4.8595,-4.8621,-4.859,-4.8601,-4.8777,-4.8786,-4.8856,-4.8861,-4.8876,-4.8879,-4.9166,-4.9169,-4.926,0,0,0,-4.8472,-4.8485,-4.8522,-4.8527,-4.8619,-4.8702,-4.8624,-4.8775,-4.8793,-4.886,-4.8876,-4.8881,-4.9164,-4.9168,-4.9253,-4.9302,0,0,0,-4.8459,-4.8483,-4.8508,-4.8527,-4.8591,-4.8699,-4.8717,-4.8779,-4.8796,-4.8873,-4.8881,-4.9163,-4.9167,-4.9248,-4.9292,-4.9381,0,0,0,-4.8446,-4.8586,-4.851,-4.8668,-4.859,-4.8755,-4.8716,-4.8838,-4.8915,-4.8877,-4.9165,-4.9169,-4.9246,-4.9286,-4.9375,-4.9457,-4.9492,0,0,-4.8626,-4.8608,-4.87,-4.8636,-4.8817,-4.8732,-4.8925,-4.8988,-4.8988,-4.9108,-4.9115,-4.9256,-4.9291,-4.938,-4.9686,-4.9714,0,0,0,-4.8759,-4.8826,-4.8872,-4.8947,-4.9,-4.9048,-4.9082,-4.9104,-4.9206,-4.9052,-4.9311,-4.9332,-4.9384,-4.9423,-4.9447,-4.949,-4.9187,-4.9187,-4.9186,-4.9022,-4.9016,-4.9168,-4.9181,-4.9253,-4.9286,-4.9343,-4.9378,-4.935,-4.9411,-4.9447,-4.9634,-4.968,-4.9698,-4.9743,-4.949,-4.949,-4.9491,-4.9491,-4.9284,-4.9377,-4.9337,-4.9471,-4.9463,-4.9573,-4.9608,-4.9585,-4.9684,-4.9607,-4.9652,-4.9568,-4.9729,-4.9768,-4.9498,-4.9497,-4.9496,-4.9495,-4.9495,-4.9456,-4.9499,-4.9526,-4.9633,-4.9714,-4.972,-4.9818,-4.9806,-4.9796,-4.984,-4.9876,-4.9874,-4.987,-4.9858,-4.9859,-4.9859,-4.986,-4.986,-4.9861,-4.9623,-4.9651,-4.9736,-4.9804,-4.9849,-4.9907,-4.994,-4.9983,-5.0028,-5.0011,-5.0012,-4.9977,-4.9746,-4.9689,-4.9871,-4.9869,-4.9868,-4.9867,-4.9866,-4.9891,-4.9829,-4.9961,-5.0007,-5.0084,-5.0165,-5.0149,-5.0238,-5.0271,-5.0319,-5.0274,-5.0106,-5.0086,-5.0067,-5.0019,-5.0276,-5.0276,-5.0276,-5.0276,-5.0036,-5.0025,-5.0157,-5.0231,-5.0301,-5.03,-5.0446,-5.0472,-5.0488,-5.0508,-5.0468,-5.0404,-5.0385,-5.0376,-5.035,-5.0305,-5.0629,-5.0629,-5.063,-5.02,-5.0195,-5.0324,-5.0342,-5.04,-5.045,-5.0587,-5.067,-5.0674,-5.0644,-5.0522,-5.0507,-5.0403,-5.0369,-5.0336,-5.0297,-5.0214,0,0]}]]